Location: Callanans Corners
(42.5326°N, 73.8846°W)
Time: 09:45:54
(UTC+00:00)

Daily predictions for brighter satellites

Satellite Brightness Start Highest point End
(mag) Time Altitude Azimuth Time Altitude Azimuth Time Altitude Azimuth
Aureole 3 Rocket 4.4 22:46:18 10° N 22:54:50 63° ENE 23:00:59 10° SSE
COSMO-SKYMED 1 2.6 22:50:55 10° NNE 22:55:14 61° E 22:59:31 10° S
Cosmos 2322 Rocket 3.0 22:52:37 10° SSE 22:57:24 28° ESE 23:02:12 10° NE
SL-08 RB Rocket 4.1 22:55:02 10° S 22:59:36 72° WSW 23:04:16 10° NNW
Timation 2 Rocket 4.0 22:54:22 10° NNW 23:00:47 87° ENE 23:06:54 10° SSE
Cosmos 1980 Rocket 3.2 22:56:24 10° SW 23:01:51 50° WNW 23:07:19 10° NNE
Cosmos 1626 4.5 23:00:01 10° NNW 23:03:11 29° W 23:06:22 10° SSW
Cosmos 1814 Rocket 4.0 22:59:50 10° NNW 23:05:01 59° ENE 23:10:06 10° SSE
Lacrosse 4 Rocket 2.2 23:02:41 10° S 23:06:13 29° ESE 23:09:48 10° NE
Cosmos 2279 Rocket 4.2 22:59:58 10° N 23:06:15 80° W 23:12:30 10° S
CZ-4B R/B 3.6 23:01:19 10° SE 23:06:21 42° ENE 23:11:30 10° N
IRIDIUM 104 4.5 23:03:52 10° SSE 23:08:53 51° E 23:13:56 10° NNE
Meteor 1-15 Rocket 4.4 23:07:06 10° SSE 23:12:24 48° E 23:17:44 10° NNE
Meteor 2-5 Rocket 4.3 23:07:56 10° N 23:12:58 34° ENE 23:17:59 10° SE
MOS 1-B 4.5 23:07:29 10° SE 23:13:08 56° ENE 23:18:48 10° N
BREEZE M DEB (TANK) 3.5 23:04:20 10° SW 23:13:46 49° SSE 23:16:49 13° ENE
USA 267 3.5 23:08:54 10° ESE 23:15:16 56° NNE 23:21:39 10° NW
Cosmos 1908 Rocket 3.6 23:12:57 10° S 23:17:10 54° E 23:21:24 10° NNE
IRIDIUM 114 4.3 23:12:51 10° S 23:17:59 63° E 23:23:09 10° N
Cosmos 2208 Rocket 4.5 23:14:10 10° N 23:19:20 43° ENE 23:24:29 10° SE
Cosmos 1844 Rocket 3.6 23:16:26 10° N 23:21:23 29° NE 23:25:28 14° ESE
Okean-O 4.4 23:22:33 13° ENE 23:23:14 13° ENE 23:25:24 10° NNE
Cosmos 1025 Rocket 4.2 23:20:06 10° NNE 23:23:32 22° ENE 23:26:07 14° ESE
Cosmos 1782 Rocket 4.1 23:21:48 10° SSE 23:25:45 35° E 23:29:43 10° NNE
Cosmos 968 Rocket 3.4 23:20:46 10° SSW 23:26:00 77° ESE 23:31:15 10° NNE
IRIDIUM 103 4.3 23:21:55 10° S 23:27:07 77° E 23:32:20 10° N
Cosmos 1674 Rocket 3.9 23:23:46 10° NNW 23:28:11 69° W 23:32:35 10° S
Cosmos 1437 Rocket 2.5 23:24:35 10° S 23:28:16 64° E 23:31:58 10° NNE
SL-16 R/B 2.1 23:23:26 10° SSW 23:29:03 74° ESE 23:34:44 10° NNE
YAOGAN 1 2.6 23:25:48 10° SSE 23:30:00 55° ENE 23:34:15 10° N
HJ-1C 3.5 23:27:32 10° SSE 23:30:29 43° ENE 23:33:26 10° N
DNEPR-1 R/B 3.9 23:29:21 10° SSW 23:33:46 56° ESE 23:39:05 10° NE
SJ-6B 4.4 23:34:30 16° ENE 23:34:30 16° ENE 23:36:37 10° NNE
Spot 1 4.0 23:32:11 10° NNE 23:36:19 81° WNW 23:40:22 10° SSW
ARGOS Delta rocket 4.0 23:34:20 10° N 23:39:31 86° W 23:44:22 10° SSW
COSMOS 2455 3.8 23:35:43 10° SSE 23:40:24 24° ESE 23:43:14 17° ENE
Cosmos 2263 Rocket 3.4 23:36:14 10° NW 23:41:36 44° WSW 23:46:58 10° S
SL-4 R/B 2.8 23:38:43 10° WNW 23:43:05 58° SW 23:46:53 15° SE
Okean O Rocket 1.5 23:39:27 10° SSE 23:43:44 63° ENE 23:48:05 10° N
Cosmos 1726 4.1 23:41:12 10° SW 23:44:28 31° WNW 23:47:47 10° NNW
Cosmos 1428 Rocket 4.5 23:39:18 10° S 23:45:22 61° E 23:51:32 10° NNE
Cosmos 2219 Rocket 3.7 23:42:30 10° SE 23:44:22 16° SE 23:44:22 16° SE
COBE Rocket 4.0 23:43:52 10° S 23:48:42 78° WSW 23:53:26 10° NNW
Tiangong 0.3 23:48:08 10° S 23:48:39 11° SSE 23:48:39 11° SSE
Cosmos 2195 Rocket 4.4 23:44:52 10° S 23:51:03 72° E 23:57:20 10° NNE
Cosmos 2292 Rocket 3.6 23:46:42 10° S 23:51:47 86° W 23:55:39 10° N
